Airport Information

KLKV - Lake County Airport

KLKV 251053Z AUTO 34006KT 10SM SCT120 M01/M02 A3008 RMK AO2 SLP204 T10111022 FZRANO


  • General Information

  • Coordinates: N 42°9'39"/ W 120°23'56"
  • Location: N/A
  • Surveyed Elevation: 4733 MSL

Operations

Flow Name Active Runways Conditions

Green background denotes normal operations.


Common Frequencies

Callsign Frequency Position Name

More at the Document Center


Charts